Flag for Canada Weather past 2 weeks in Hay River, Northwest Territories, Canada

Now
88 °F

Broken clouds.


Feels Like: 85 °F
Forecast: 64 / 82 °F
Wind: 8 mph from South

Location: Hay River

Current Time: Jul 23, 2014 at 3:57:24 PM

Latest Report: Jul 23, 2014 at 3:00 PM


Visibility: 15 mi

Pressure: 29.84 "Hg

Humidity: 29%

Dew point: 52 °F

Location of Hay RiverLocation

Historic Weather in Hay River — Graph

°F

Hay River temperature yesterday

Maximum temperature yesterday: 77 °F (at 6:00 PM)
Minimum temperature yesterday: 55 °F (at 4:00 AM)
Average temperature yesterday: 66 °F

Past Weeks' High & Low Weather Summary

 TemperatureHumidityPressure
High88 °F (Jul 13, 6:00 PM)100% (Jul 9, 8:00 AM)30.16 "Hg (Jul 9, 8:00 AM)
Low43 °F (Jul 20, 5:00 AM)31% (Jul 12, 5:00 PM)29.53 "Hg (Jul 19, 2:00 AM)
Average64 °F62%29.84 "Hg
* Reported Jul 8 2:00 PM — Jul 23 2:00 PM, Hay River, Weather by CustomWeather, © 2014

Note: Actual official high and low records may vary slightly from our data, if they occured in-between our weather recording intervals... More about our weather records

Advertising

Hay River weather history for previous 24 hours

 ConditionsComfort  
Time TempWeatherWind HumidityBarometerVisibility
2:00 PM
Jul 23
84 °FScattered clouds.6 mph33%29.86 "Hg15 mi
1:00 PM86 °FScattered clouds.8 mph31%29.88 "Hg15 mi
12:00 PM82 °FScattered clouds.8 mph37%29.90 "Hg15 mi
11:00 AM81 °FScattered clouds.8 mph42%29.92 "Hg15 mi
10:00 AM77 °FBroken clouds.6 mph47%29.93 "Hg15 mi
9:00 AM72 °FPartly sunny.7 mph57%29.95 "Hg15 mi
8:00 AM68 °FBroken clouds.5 mph60%29.97 "Hg15 mi
7:00 AM66 °FBroken clouds.6 mph64%29.97 "Hg15 mi
4:00 AM64 °FPassing clouds.3 mph64%30.00 "Hg15 mi
3:00 AM66 °FPassing clouds.3 mph64%30.00 "Hg15 mi
2:00 AM66 °FPassing clouds.3 mph64%30.00 "Hg15 mi
12:00 AM70 °FPassing clouds.6 mph60%30.00 "Hg15 mi
11:00 PM
Jul 22
68 °FPartly sunny.3 mph73%30.00 "Hg15 mi
10:00 PM70 °FPartly sunny.6 mph69%30.00 "Hg15 mi
9:00 PM75 °FScattered clouds.7 mph50%30.00 "Hg15 mi
8:00 PM77 °FScattered clouds.7 mph47%30.00 "Hg15 mi
7:00 PM77 °FPartly sunny.9 mph47%30.01 "Hg15 mi
6:00 PM77 °FScattered clouds.7 mph51%30.01 "Hg15 mi
5:00 PM73 °FBroken clouds.8 mph57%30.02 "Hg15 mi
Weather by CustomWeather, © 2014

See weather overviewHow to use our weather pages